User: anonymous   Login
Location: Unspecified
(0.0000°N, 0.0000°E)
Time: 20:18:10
(UTC+00:00)
Language:

HELLAS-SAT - Orbit

View from above orbital plane
View from above orbital plane
View from above satellite
View from above satellite

Ground track
Ground track

The orbit is defined by the following mean orbital elements,

1 27811U          26145.58173508 +.00000000 +00000-0 +00000-0 0 00007
2 27811   7.3013  68.1521 0003065 337.0448  37.3849  1.00271827    03
Epoch (UTC): 25 May 2026 13:57:41
Eccentricity: 0.0003065
inclination: 7.3013°
perigee height: 35774 km
apogee height: 35800 km
right ascension of ascending node: 68.1521°
argument of perigee: 337.0448°
revolutions per day: 1.00271827
mean anomaly at epoch: 37.3849°

The dashed part of the orbit path shows where the satellite is in the earth's shadow,  

DLR